Location: Caltech
(34.1382°N, 118.1253°W)
Time: 08:45:00
(UTC-08:00)

Cosmos 2084 - Visible Passes

Search period start: 14 December 2017 00:00
Search period end: 24 December 2017 00:00
Orbit: 498 x 687 km, 62.8° (Epoch: 13 December)

Date Brightness Start Highest point End Pass type
(mag) Time Alt. Az. Time Alt. Az. Time Alt. Az.
14 Dec 6.0 04:29:41 11° S 04:29:41 11° S 04:29:50 10° S visible
14 Dec 3.2 18:23:00 10° SSW 18:27:15 74° ESE 18:27:47 63° ENE visible
15 Dec 3.9 18:31:46 10° SW 18:35:56 55° WNW 18:36:54 43° N visible
16 Dec 5.0 18:41:00 10° WSW 18:44:41 29° NW 18:45:58 24° NNW visible
17 Dec 4.0 17:09:55 10° S 17:13:56 40° ESE 17:17:44 10° NE visible
17 Dec 5.7 18:50:49 10° W 18:53:31 17° NW 18:54:56 14° NNW visible
18 Dec 3.3 17:18:17 10° SSW 17:22:33 82° ESE 17:26:35 10° NNE visible
19 Dec 4.1 17:27:07 10° SW 17:31:14 50° WNW 17:35:09 10° NNE visible
20 Dec 5.2 17:36:25 10° WSW 17:39:59 27° NW 17:43:26 10° N visible
21 Dec 5.8 17:46:20 10° W 17:48:50 15° NW 17:51:17 10° N visible
